Stations météo

réclame
Mon MeteoGroup
Berlin/Tegel, Allemagne (10382): Température de l'air & dewpoint: 08.08.2018 23:00:00 - 14.08.2018 23:00:00 (CEST)Berlin/Tegel, Allemagne (10382): Température de l'air 5cm & Température de l'air -5cm: 08.08.2018 23:00:00 - 14.08.2018 23:00:00 (CEST)Berlin/Tegel, Allemagne (10382): Température de l'air -20cm & Température de l'air -100cm: 08.08.2018 23:00:00 - 14.08.2018 23:00:00 (CEST)Berlin/Tegel, Allemagne (10382): Vitesse du vent & gusts: 08.08.2018 23:00:00 - 14.08.2018 23:00:00 (CEST)Berlin/Tegel, Allemagne (10382): Direction du vent: 08.08.2018 23:00:00 - 14.08.2018 23:00:00 (CEST)Berlin/Tegel, Allemagne (10382): reduced air pressure: 08.08.2018 23:00:00 - 14.08.2018 23:00:00 (CEST)Berlin/Tegel, Allemagne (10382): visibility: 08.08.2018 23:00:00 - 14.08.2018 23:00:00 (CEST)Berlin/Tegel, Allemagne (10382): Ensoleillement: 08.08.2018 23:00:00 - 14.08.2018 23:00:00 (CEST)Berlin/Tegel, Allemagne (10382): Quantités de précipitations: 08.08.2018 23:00:00 - 14.08.2018 23:00:00 (CEST)
Date & Time tt [°C] td [°C] tt 5cm [°C] tt -5cm [°C] tt -20cm [°C] tt -100cm [°C] ff [km/h] ff [knt] fx [km/h] fx [knt] dd ppp [hPa] vv [km] sd [min] rr [mm]
14.08.2018 23:00:00 19,3 15,7 19,3 24,3 25,4 22,7 21 11 37 20 W 1013,3 10 0 0,0
14.08.2018 22:00:00 19,6 16,2 19,6 24,8 25,5 22,7 21 11 40 22 W 1012,7 10 0 0,0
14.08.2018 21:00:00 20,3 16,0 19,8 25,6 25,6 22,7 26 14 40 21 W 1012,1 10 0 0,0
14.08.2018 20:00:00 21,3 15,7 21,1 26,6 25,7 22,7 22 12 34 18 W 1011,1 10 30 0,0
14.08.2018 19:00:00 21,5 15,6 22,4 27,6 25,6 22,7 24 13 42 23 WSW 1010,9 10 18 0,0
14.08.2018 18:00:00 23,2 13,7 24,6 28,6 25,4 22,7 21 11 39 21 W 1010,5 10 42 0,0
14.08.2018 17:00:00 23,1 13,3 24,2 28,2 25,3 22,7 18 10 35 19 WSW 1010,4 10 0 0,0
14.08.2018 16:00:00 22,5 13,0 25,8 28,0 25,1 22,7 16 9 49 26 WSW 1010,3 45 15 0,0
14.08.2018 15:00:00 22,7 12,9 23,8 28,3 24,9 22,7 29 16 40 21 WSW 1010,6 10 0 0,0
14.08.2018 14:00:00 23,2 12,4 25,4 28,3 24,6 22,7 26 14 42 23 SW 1010,0 10 11 0,0
14.08.2018 13:00:00 22,3 12,2 23,7 28,4 24,4 22,7 25 13 46 25 WSW 1009,9 40 20 0,0
14.08.2018 12:00:00 22,7 12,2 27,8 27,0 24,2 22,7 29 16 40 22 WSW 1010,0 40 41 0,0
14.08.2018 11:00:00 21,3 13,3 26,8 25,0 24,0 22,7 22 12 35 19 WSW 1009,9 40 8 0,0
14.08.2018 10:00:00 19,8 13,0 22,4 24,6 24,0 22,7 21 12 40 21 W 1009,8 40 37 0,0
14.08.2018 09:00:00 19,9 13,7 22,7 22,9 24,1 22,7 26 14 37 20 WSW 1009,3 10 59 0,0
14.08.2018 08:00:00 18,2 13,5 19,6 21,5 24,3 22,7 21 11 27 15 WSW 1009,1 35 58 0,0
14.08.2018 07:00:00 17,1 13,6 16,5 21,2 24,6 22,7 11 6 18 10 WSW 1008,8 10 9 0,0
14.08.2018 06:00:00 16,4 13,4 15,0 21,5 24,8 22,7 15 8 22 12 W 1008,3 40 0 0,0
14.08.2018 05:00:00 16,9 13,5 15,1 22,0 25,1 22,8 15 8 22 12 W 1007,9 45 0 0,0
14.08.2018 04:00:00 17,6 13,6 16,0 22,5 25,4 22,8 15 8 25 14 WSW 1007,6 10 0 0,0
14.08.2018 03:00:00 19,3 14,2 17,9 23,0 25,6 22,8 18 10 29 16 WSW 1007,4 10 0 0,0
14.08.2018 02:00:00 19,4 14,9 17,7 23,5 25,9 22,8 11 6 15 8 SSW 1007,1 10 0 0,0
14.08.2018 01:00:00 20,1 15,0 18,3 24,1 26,2 22,8 10 6 18 10 SSW 1007,2 50 0 0,0
14.08.2018 00:00:00 20,3 15,1 18,5 24,8 26,4 22,8 11 6 18 10 SSW 1007,2 10 0 0,0
13.08.2018 23:00:00 21,3 14,9 19,8 25,6 26,7 22,8 11 6 22 12 S 1007,3 10 0 0,0
13.08.2018 22:00:00 22,3 14,3 21,6 26,4 26,9 22,8 14 7 22 12 SSW 1007,1 50 0 0,0
13.08.2018 21:00:00 23,0 13,5 22,3 27,2 27,1 22,8 15 8 23 12 SSW 1006,9 10 2 0,0
13.08.2018 20:00:00 23,5 13,0 22,9 28,1 27,2 22,9 8 4 18 10 ESE 1006,4 10 2 0,0
13.08.2018 19:00:00 23,8 12,5 23,6 29,3 27,3 22,9 19 10 41 22 W 1007,1 45 0 0,0
13.08.2018 18:00:00 26,0 10,6 25,9 31,3 27,2 22,9 23 13 41 22 W 1007,0 40 0 0,0
13.08.2018 17:00:00 28,7 8,4 29,6 32,9 26,9 22,9 29 16 41 22 W 1006,5 50 0 0,0
13.08.2018 16:00:00 30,6 4,7 32,5 34,7 26,3 22,9 11 6 29 16 SW 1005,9 50 16 0,0
13.08.2018 15:00:00 31,1 4,8 38,2 34,8 25,6 22,9 19 11 34 18 SSW 1006,2 50 58 0,0
13.08.2018 14:00:00 30,2 5,8 35,8 33,9 24,9 22,9 13 7 26 14 - 1006,7 10 58 0,0
13.08.2018 13:00:00 29,9 5,9 35,0 32,3 24,3 22,9 15 8 23 12 S 1007,1 10 60 0,0
13.08.2018 12:00:00 29,0 5,9 34,7 29,8 23,8 23,0 11 6 25 13 SSE 1007,6 45 59 0,0
13.08.2018 11:00:00 27,0 6,9 32,4 27,6 23,4 23,0 5 3 15 8 SSE 1008,0 10 60 0,0
13.08.2018 10:00:00 24,9 8,5 29,0 24,7 23,3 23,0 5 3 9 5 - 1008,0 10 60 0,0
13.08.2018 09:00:00 22,3 8,5 26,6 22,2 23,4 23,0 5 3 11 6 SE 1008,6 10 60 0,0
13.08.2018 08:00:00 19,9 7,9 21,7 20,3 23,6 23,0 5 3 11 6 SE 1008,9 10 60 0,0
13.08.2018 07:00:00 17,0 8,6 14,9 19,6 23,9 23,0 4 2 4 2 - 1008,8 10 27 0,0
13.08.2018 06:00:00 15,0 8,6 9,9 20,0 24,2 23,0 4 2 5 3 ENE 1008,9 40 0 0,0
13.08.2018 05:00:00 14,2 8,4 9,3 20,5 24,5 23,0 2 1 5 3 ENE 1009,5 10 0 0,0
13.08.2018 04:00:00 15,2 8,5 11,6 21,2 24,9 23,0 2 1 5 3 - 1009,9 10 0 0,0
13.08.2018 03:00:00 15,4 8,2 11,8 21,6 25,2 23,0 3 2 5 3 ENE 1010,4 50 0 0,0
13.08.2018 02:00:00 16,4 7,9 12,3 22,3 25,5 23,1 4 2 5 3 ENE 1010,8 10 0 0,0
13.08.2018 01:00:00 18,7 7,5 12,9 23,1 25,8 23,1 5 3 10 6 ENE 1011,1 50 0 0,0
13.08.2018 00:00:00 20,1 7,4 16,4 24,0 26,1 23,1 5 3 9 5 ENE 1011,6 50 0 0,0
12.08.2018 23:00:00 21,3 7,0 18,4 24,8 26,4 23,1 4 2 9 5 - 1011,9 10 0 0,0
12.08.2018 22:00:00 22,0 7,2 19,3 26,0 26,7 23,2 5 3 9 5 NE 1012,2 10 0 0,0
12.08.2018 21:00:00 23,1 6,9 18,9 27,4 26,8 23,2 5 3 9 5 N 1012,5 50 0 0,0
12.08.2018 20:00:00 24,9 5,2 22,5 29,1 26,8 23,2 6 3 16 9 NNW 1012,6 50 35 0,0
12.08.2018 19:00:00 26,2 3,4 25,7 30,7 26,6 23,2 10 5 26 14 SSW 1013,0 50 60 0,0
12.08.2018 18:00:00 26,3 3,4 28,7 32,1 26,2 23,2 16 9 28 15 SSW 1013,5 50 60 0,0
12.08.2018 17:00:00 27,0 4,2 30,5 32,7 25,8 23,3 16 9 35 19 SW 1014,2 50 60 0,0
12.08.2018 16:00:00 25,8 4,5 31,2 32,5 25,2 23,3 16 9 48 26 SW 1015,2 50 60 0,0
12.08.2018 15:00:00 25,5 4,9 31,8 31,7 24,6 23,3 13 7 35 19 SW 1015,9 50 60 0,0
12.08.2018 14:00:00 24,3 4,8 31,9 30,4 24,0 23,3 18 10 36 20 W 1016,7 10 55 0,0
12.08.2018 13:00:00 22,9 6,3 29,8 29,5 23,5 23,3 14 7 36 19 WSW 1017,4 50 59 0,0
12.08.2018 12:00:00 21,8 6,4 28,8 27,4 23,0 23,4 14 8 37 20 S 1018,3 50 60 0,0
12.08.2018 11:00:00 21,4 8,3 27,3 25,2 22,7 23,4 18 10 27 15 S 1018,7 50 60 0,0
12.08.2018 10:00:00 19,7 9,0 24,7 22,9 22,5 23,4 14 8 20 11 S 1019,0 50 60 0,0
12.08.2018 09:00:00 17,5 9,2 21,4 20,7 22,6 23,4 10 5 15 8 SSW 1019,4 50 60 0,0
12.08.2018 08:00:00 15,6 9,3 18,5 18,9 22,8 23,4 8 4 11 6 SSW 1019,8 50 60 0,0
12.08.2018 07:00:00 13,4 9,0 12,4 18,3 23,1 23,4 8 4 15 8 SSW 1020,2 45 28 0,0
12.08.2018 06:00:00 11,8 9,3 8,0 18,4 23,5 23,4 3 2 7 4 S 1020,2 45 0 0,0
12.08.2018 05:00:00 11,4 8,6 6,8 18,8 23,8 23,5 3 2 8 4 SSW 1020,1 50 0 0,0
12.08.2018 04:00:00 12,1 8,6 6,8 19,4 24,2 23,5 5 3 9 5 W 1020,3 10 0 0,0
12.08.2018 03:00:00 13,0 8,5 8,5 20,0 24,5 23,5 9 5 13 7 W 1020,5 50 0 0,0
12.08.2018 02:00:00 13,8 8,3 9,5 20,7 24,9 23,5 9 5 16 9 W 1020,4 10 0 0,0
12.08.2018 01:00:00 13,8 7,8 11,1 21,4 25,2 23,5 11 6 18 10 W 1020,6 10 0 0,0
12.08.2018 00:00:00 14,5 7,6 12,1 22,2 25,6 23,6 14 8 22 12 W 1020,6 50 0 0,0
11.08.2018 23:00:00 16,2 7,7 13,6 23,1 25,9 23,6 13 7 28 15 W 1020,7 10 0 0,0
11.08.2018 22:00:00 17,6 7,7 15,4 24,2 26,1 23,6 16 9 30 16 W 1020,4 10 0 0,0
11.08.2018 21:00:00 18,2 7,9 16,8 25,3 26,3 23,6 18 10 29 16 W 1020,2 50 0 0,0
11.08.2018 20:00:00 19,7 7,6 19,1 26,7 26,4 23,6 21 11 41 22 WNW 1019,6 50 44 0,0
11.08.2018 19:00:00 21,5 5,8 22,0 28,1 26,3 23,7 24 13 51 27 W 1018,9 55 49 0,0
11.08.2018 18:00:00 22,3 4,4 24,5 29,1 26,1 23,7 31 17 63 34 W 1018,6 10 51 0,0
11.08.2018 17:00:00 22,7 4,8 26,0 29,6 25,8 23,7 28 15 56 30 W 1018,8 60 43 0,0
11.08.2018 16:00:00 22,6 5,2 27,4 29,9 25,4 23,7 29 16 53 29 W 1018,9 60 45 0,0
11.08.2018 15:00:00 22,9 6,2 29,1 29,1 25,1 23,7 33 18 53 29 W 1019,0 55 49 0,0
11.08.2018 14:00:00 21,8 6,7 26,6 27,7 24,8 23,7 37 20 53 29 WSW 1019,5 10 45 0,0
11.08.2018 13:00:00 20,0 8,5 23,0 26,1 24,6 23,8 32 17 42 23 W 1019,6 50 1 0,0
11.08.2018 12:00:00 20,2 8,4 24,3 25,6 24,4 23,8 20 11 34 18 W 1019,7 50 6 0,0
11.08.2018 11:00:00 20,5 7,8 23,3 24,9 24,3 23,8 22 12 41 22 W 1019,4 10 1 0,0
11.08.2018 10:00:00 21,1 7,0 24,3 23,8 24,2 23,8 24 13 37 20 WSW 1019,0 45 28 0,0
11.08.2018 09:00:00 19,8 8,4 23,2 22,2 24,3 23,8 15 8 21 11 SW 1019,0 10 9 0,0
11.08.2018 08:00:00 17,6 7,9 17,7 21,4 24,5 23,8 13 7 22 12 SSW 1019,0 10 15 0,0
11.08.2018 07:00:00 17,6 7,3 16,4 21,1 24,7 23,8 11 6 26 14 S 1018,9 10 9 0,0
11.08.2018 06:00:00 17,7 7,7 15,0 21,4 25,0 23,8 11 6 15 8 S 1019,3 40 0 0,0
11.08.2018 05:00:00 17,6 9,2 15,8 21,5 25,3 23,8 9 5 16 9 SSE 1019,6 10 0 0,0
11.08.2018 04:00:00 18,1 9,5 16,3 21,9 25,5 23,8 13 7 18 10 SSE 1020,2 10 0 0,0
11.08.2018 03:00:00 18,8 8,5 17,2 22,1 25,8 23,8 11 6 22 12 SSE 1020,7 50 0 0,0
11.08.2018 02:00:00 18,0 8,5 16,3 22,1 26,2 23,9 8 5 13 7 SE 1021,2 50 0 0,0
11.08.2018 01:00:00 16,0 8,2 12,8 22,5 26,6 23,9 8 4 8 4 SE 1021,5 10 0 0,0
11.08.2018 00:00:00 16,9 8,6 13,0 23,3 27,0 23,9 4 2 11 6 ESE 1021,7 50 0 0,0
10.08.2018 23:00:00 17,6 7,6 14,9 24,2 27,3 23,9 6 3 9 5 ESE 1021,8 50 0 0,0
10.08.2018 22:00:00 19,2 7,2 15,6 25,3 27,6 23,9 5 3 8 4 SE 1021,8 50 0 0,0
10.08.2018 21:00:00 20,9 7,1 15,1 26,8 27,8 23,9 4 2 9 5 NNW 1021,7 50 9 0,0
10.08.2018 20:00:00 22,1 7,0 20,6 28,2 27,9 23,9 8 4 26 14 WNW 1021,4 10 60 0,0
10.08.2018 19:00:00 22,9 6,9 24,1 29,6 27,8 23,9 11 6 24 13 WNW 1021,3 10 55 0,0
10.08.2018 18:00:00 23,6 7,5 26,8 30,6 27,7 23,9 11 6 29 16 WNW 1021,5 10 36 0,0
10.08.2018 17:00:00 23,4 8,4 27,1 31,5 27,3 23,9 12 6 34 18 W 1021,8 50 28 0,0
10.08.2018 16:00:00 22,7 8,9 30,1 31,9 26,9 23,9 17 9 32 17 WNW 1022,0 50 49 0,0
10.08.2018 15:00:00 22,3 9,4 29,2 30,7 26,6 23,9 16 9 34 18 WNW 1021,7 10 43 0,0
10.08.2018 14:00:00 22,3 10,1 28,6 28,3 26,4 23,9 22 12 40 22 W 1021,3 10 28 0,0
10.08.2018 13:00:00 21,3 10,3 26,3 26,7 26,3 23,9 25 13 44 24 W 1021,1 60 22 0,0
10.08.2018 12:00:00 20,4 10,5 22,7 25,4 26,3 23,9 29 16 42 23 W 1020,8 60 6 0,0
10.08.2018 11:00:00 19,2 10,8 20,6 24,3 26,5 23,9 32 18 48 26 W 1020,6 60 9 0,0
10.08.2018 10:00:00 18,6 11,4 18,8 23,7 26,8 23,9 31 17 43 23 W 1019,7 10 0 0,0
10.08.2018 09:00:00 19,1 12,2 18,8 23,8 27,0 23,9 32 17 44 24 W 1018,7 55 0 0,0
10.08.2018 08:00:00 20,2 13,3 20,0 23,9 27,3 23,9 25 14 41 22 W 1017,2 50 0 0,0
10.08.2018 07:00:00 20,4 15,6 19,7 24,1 27,7 23,9 19 10 31 17 WSW 1016,0 40 0 0,0
10.08.2018 06:00:00 20,8 15,3 19,7 24,4 28,0 23,9 18 10 31 17 WSW 1015,0 40 0 0,0
10.08.2018 05:00:00 20,2 16,5 18,6 24,7 28,4 23,9 13 7 31 17 SSW 1014,2 10 0 0,0
10.08.2018 04:00:00 20,9 16,8 18,6 25,4 28,9 23,9 18 10 28 15 SW 1013,5 35 0 0,0
10.08.2018 03:00:00 20,6 18,2 18,8 26,1 29,3 23,9 11 6 23 13 SW 1013,0 10 0 0,0
10.08.2018 02:00:00 20,8 18,4 19,1 26,9 29,7 23,9 16 8 23 12 WSW 1012,2 30 0 0,0
10.08.2018 01:00:00 21,1 19,9 20,0 28,0 30,1 23,9 13 7 19 10 WSW 1011,7 10 0 0,0
10.08.2018 00:00:00 22,4 19,9 21,2 29,0 30,5 23,9 4 2 16 9 - 1010,5 10 0 0,2
09.08.2018 23:00:00 22,2 19,8 21,3 30,4 30,8 23,9 4 2 55 30 - 1010,5 10 0 0,9
09.08.2018 22:00:00 26,7 16,5 26,6 31,7 31,0 23,9 41 22 67 36 WSW 1009,8 35 0 0,0
09.08.2018 21:00:00 31,5 15,1 30,4 32,8 31,2 23,9 21 12 35 19 SE 1007,9 30 0 0,0
09.08.2018 20:00:00 32,3 15,7 31,4 34,3 31,2 23,9 14 8 34 18 E 1008,1 35 24 0,0
09.08.2018 19:00:00 33,3 14,9 33,6 35,8 31,0 23,9 18 10 36 20 E 1009,1 10 54 0,0
09.08.2018 18:00:00 33,7 15,3 35,1 37,3 30,7 23,9 18 10 36 19 E 1009,8 35 60 0,0
09.08.2018 17:00:00 33,7 14,3 36,9 38,1 30,2 23,9 16 9 29 16 ESE 1010,6 10 59 0,0
09.08.2018 16:00:00 32,6 16,1 37,4 38,1 29,6 23,9 18 10 28 15 ESE 1011,5 30 59 0,0
09.08.2018 15:00:00 32,4 16,8 37,4 37,6 29,0 23,9 11 6 29 16 - 1012,6 10 60 0,0
09.08.2018 14:00:00 31,0 17,2 36,8 36,5 28,3 23,9 16 9 30 16 E 1013,4 10 60 0,0
09.08.2018 13:00:00 29,4 17,9 34,8 34,7 27,8 23,9 13 7 25 13 ESE 1014,2 10 60 0,0
09.08.2018 12:00:00 28,2 17,4 33,1 32,3 27,4 23,8 13 7 22 12 E 1015,1 10 60 0,0
09.08.2018 11:00:00 26,9 17,0 30,9 29,7 27,3 23,8 11 6 27 14 ENE 1015,7 10 59 0,0
09.08.2018 10:00:00 25,0 15,8 28,4 27,6 27,3 23,8 10 6 25 13 NE 1016,0 25 60 0,0
09.08.2018 09:00:00 23,6 16,1 26,2 26,0 27,4 23,8 13 7 26 14 NE 1016,0 20 60 0,0
09.08.2018 08:00:00 22,0 16,9 23,7 25,0 27,7 23,8 9 5 21 11 NNE 1015,8 10 60 0,0
09.08.2018 07:00:00 21,4 17,9 21,0 24,8 28,0 23,8 10 5 16 9 NE 1015,7 25 0 0,0
09.08.2018 06:00:00 21,5 17,8 20,0 25,1 28,4 23,8 7 4 16 9 NNE 1015,6 25 0 0,0
09.08.2018 05:00:00 21,9 17,7 20,4 25,5 28,7 23,8 7 4 22 12 NNE 1015,3 30 0 0,0
09.08.2018 04:00:00 22,5 16,9 20,0 25,9 29,2 23,8 10 5 20 11 NE 1014,8 30 0 0,0
09.08.2018 03:00:00 20,1 17,5 17,7 26,6 29,6 23,8 2 1 8 4 - 1014,2 10 0 0,0
09.08.2018 02:00:00 21,0 18,2 18,2 27,5 30,0 23,7 3 1 8 4 WNW 1013,9 25 0 0,0
09.08.2018 01:00:00 23,4 18,3 20,1 28,5 30,3 23,7 5 3 9 5 NW 1013,5 10 0 0,0
09.08.2018 00:00:00 23,2 20,0 21,8 29,6 30,7 23,7 5 3 9 5 WNW 1013,2 10 0 0,0
08.08.2018 23:00:00 24,3 20,3 22,4 30,8 30,9 23,7 5 3 16 9 NNE 1013,0 25 0 1,3

tt = Température de l'air
td = dewpoint
tt 5cm = Température de l'air 5cm
tt -5cm = Température de l'air -5cm
tt -20cm = Température de l'air -20cm
tt -100cm = Température de l'air -100cm
ff = Vitesse du vent
fx = gusts
dd = Direction du vent
ppp = reduced air pressure
vv = visibility
sd = Ensoleillement
rr = Quantités de précipitations

stations d'obs. à proximité